"Time","Value","Approval","myLocation"
"2023-05-06 00:00",29.0039637774903,"Approved","OW377"
"2023-05-06 01:00",29.1459586028461,"Approved","OW377"
"2023-05-06 02:00",28.8939534282018,"Approved","OW377"
"2023-05-06 03:00",28.5179482535576,"Approved","OW377"
"2023-05-06 04:00",28.2899430789133,"Approved","OW377"
"2023-05-06 05:00",28.1179379042691,"Approved","OW377"
"2023-05-06 06:00",28.1549327296248,"Approved","OW377"
"2023-05-06 07:00",28.5559275549806,"Approved","OW377"
"2023-05-06 08:00",28.4219223803364,"Approved","OW377"
"2023-05-06 09:00",28.1469172056921,"Approved","OW377"
"2023-05-06 10:00",27.9779120310479,"Approved","OW377"
"2023-05-06 11:00",27.8469068564036,"Approved","OW377"
"2023-05-06 12:00",27.7339016817594,"Approved","OW377"
"2023-05-06 13:00",27.6328965071151,"Approved","OW377"
"2023-05-06 14:00",27.5408913324709,"Approved","OW377"
"2023-05-06 15:00",27.4548861578266,"Approved","OW377"
"2023-05-06 16:00",27.3768809831824,"Approved","OW377"
"2023-05-06 17:00",27.9888758085382,"Approved","OW377"
"2023-05-06 18:00",28.3038706338939,"Approved","OW377"
"2023-05-06 19:00",28.5378654592497,"Approved","OW377"
"2023-05-06 20:00",28.7308602846054,"Approved","OW377"
"2023-05-06 21:00",28.8978551099612,"Approved","OW377"
"2023-05-06 22:00",29.0468499353169,"Approved","OW377"
"2023-05-06 23:00",28.5788447606727,"Approved","OW377"
"2023-05-07 00:00",28.2988395860285,"Approved","OW377"
"2023-05-07 01:00",28.1098344113842,"Approved","OW377"
"2023-05-07 02:00",28.21182923674,"Approved","OW377"
"2023-05-07 03:00",28.6348240620957,"Approved","OW377"
"2023-05-07 04:00",28.8768188874515,"Approved","OW377"
"2023-05-07 05:00",29.0648137128072,"Approved","OW377"
"2023-05-07 06:00",29.222808538163,"Approved","OW377"
"2023-05-07 07:00",29.3618033635188,"Approved","OW377"
"2023-05-07 08:00",29.4837981888745,"Approved","OW377"
"2023-05-07 09:00",29.5967930142303,"Approved","OW377"
"2023-05-07 10:00",29.700787839586,"Approved","OW377"
"2023-05-07 11:00",29.3197826649418,"Approved","OW377"
"2023-05-07 12:00",28.9667774902975,"Approved","OW377"
"2023-05-07 13:00",28.7357723156533,"Approved","OW377"
"2023-05-07 14:00",28.5567671410091,"Approved","OW377"
"2023-05-07 15:00",28.4097619663648,"Approved","OW377"
"2023-05-07 16:00",28.2837567917206,"Approved","OW377"
"2023-05-07 17:00",28.1717516170763,"Approved","OW377"
"2023-05-07 18:00",28.3787464424321,"Approved","OW377"
"2023-05-07 19:00",28.8057412677878,"Approved","OW377"
"2023-05-07 20:00",29.0627360931436,"Approved","OW377"
"2023-05-07 21:00",29.0847309184994,"Approved","OW377"
"2023-05-07 22:00",28.6617257438551,"Approved","OW377"
"2023-05-07 23:00",28.4477205692109,"Approved","OW377"
"2023-05-08 00:00",28.2917153945666,"Approved","OW377"
"2023-05-08 01:00",28.4607102199224,"Approved","OW377"
"2023-05-08 02:00",28.8757050452781,"Approved","OW377"
"2023-05-08 03:00",29.1196998706339,"Approved","OW377"
"2023-05-08 04:00",29.3096946959896,"Approved","OW377"
"2023-05-08 05:00",29.4696895213454,"Approved","OW377"
"2023-05-08 06:00",29.6116843467012,"Approved","OW377"
"2023-05-08 07:00",29.7396791720569,"Approved","OW377"
"2023-05-08 08:00",29.8556739974127,"Approved","OW377"
"2023-05-08 09:00",29.9626688227684,"Approved","OW377"
"2023-05-08 10:00",30.0626636481242,"Approved","OW377"
"2023-05-08 11:00",30.1536584734799,"Approved","OW377"
"2023-05-08 12:00",30.2376532988357,"Approved","OW377"
"2023-05-08 13:00",30.3176481241915,"Approved","OW377"
"2023-05-08 14:00",30.3936429495472,"Approved","OW377"
"2023-05-08 15:00",30.192637774903,"Approved","OW377"
"2023-05-08 16:00",29.7346326002587,"Approved","OW377"
"2023-05-08 17:00",29.4676274256145,"Approved","OW377"
"2023-05-08 18:00",29.9506222509702,"Approved","OW377"
"2023-05-08 19:00",30.165617076326,"Approved","OW377"
"2023-05-08 20:00",30.3166119016818,"Approved","OW377"
"2023-05-08 21:00",30.4406067270375,"Approved","OW377"
"2023-05-08 22:00",30.1076015523933,"Approved","OW377"
"2023-05-08 23:00",29.743596377749,"Approved","OW377"
"2023-05-09 00:00",29.5105912031048,"Approved","OW377"
"2023-05-09 01:00",29.8365860284605,"Approved","OW377"
"2023-05-09 02:00",30.1155808538163,"Approved","OW377"
"2023-05-09 03:00",30.2965756791721,"Approved","OW377"
"2023-05-09 04:00",30.1485705045278,"Approved","OW377"
"2023-05-09 05:00",29.7435653298836,"Approved","OW377"
"2023-05-09 06:00",29.5115601552393,"Approved","OW377"
"2023-05-09 07:00",29.9545549805951,"Approved","OW377"
"2023-05-09 08:00",29.6485498059508,"Approved","OW377"
"2023-05-09 09:00",29.4065446313066,"Approved","OW377"
"2023-05-09 10:00",29.2415394566624,"Approved","OW377"
"2023-05-09 11:00",29.3015342820181,"Approved","OW377"
"2023-05-09 12:00",29.4675291073739,"Approved","OW377"
"2023-05-09 13:00",29.1855239327296,"Approved","OW377"
"2023-05-09 14:00",29.4935187580854,"Approved","OW377"
"2023-05-09 15:00",29.8175135834411,"Approved","OW377"
"2023-05-09 16:00",30.0275084087969,"Approved","OW377"
"2023-05-09 17:00",30.1935032341527,"Approved","OW377"
"2023-05-09 18:00",30.0764980595084,"Approved","OW377"
"2023-05-09 19:00",29.6864928848642,"Approved","OW377"
"2023-05-09 20:00",30.1364877102199,"Approved","OW377"
"2023-05-09 21:00",30.3334825355757,"Approved","OW377"
"2023-05-09 22:00",30.4794773609314,"Approved","OW377"
"2023-05-09 23:00",30.2614721862872,"Approved","OW377"
"2023-05-10 00:00",29.8644670116429,"Approved","OW377"
"2023-05-10 01:00",30.1654618369987,"Approved","OW377"
"2023-05-10 02:00",30.4054566623545,"Approved","OW377"
"2023-05-10 03:00",30.5634514877102,"Approved","OW377"
"2023-05-10 04:00",30.178446313066,"Approved","OW377"
"2023-05-10 05:00",29.8564411384217,"Approved","OW377"
"2023-05-10 06:00",30.0064359637775,"Approved","OW377"
"2023-05-10 07:00",30.0524307891332,"Approved","OW377"
"2023-05-10 08:00",29.712425614489,"Approved","OW377"
"2023-05-10 09:00",29.5184204398448,"Approved","OW377"
"2023-05-10 10:00",29.3684152652005,"Approved","OW377"
"2023-05-10 11:00",29.2404100905563,"Approved","OW377"
"2023-05-10 12:00",29.459404915912,"Approved","OW377"
"2023-05-10 13:00",29.5863997412678,"Approved","OW377"
"2023-05-10 14:00",29.2913945666235,"Approved","OW377"
"2023-05-10 15:00",29.5343893919793,"Approved","OW377"
"2023-05-10 16:00",29.8853842173351,"Approved","OW377"
"2023-05-10 17:00",30.1063790426908,"Approved","OW377"
"2023-05-10 18:00",30.2773738680466,"Approved","OW377"
"2023-05-10 19:00",30.0113686934023,"Approved","OW377"
"2023-05-10 20:00",29.8473635187581,"Approved","OW377"
"2023-05-10 21:00",30.2243583441138,"Approved","OW377"
"2023-05-10 22:00",29.9673531694696,"Approved","OW377"
"2023-05-10 23:00",30.3353479948254,"Approved","OW377"
"2023-05-11 00:00",29.9263428201811,"Approved","OW377"
"2023-05-11 01:00",30.0673376455369,"Approved","OW377"
"2023-05-11 02:00",30.3563324708926,"Approved","OW377"
"2023-05-11 03:00",30.4213272962484,"Approved","OW377"
"2023-05-11 04:00",29.9233221216041,"Approved","OW377"
"2023-05-11 05:00",29.6833169469599,"Approved","OW377"
"2023-05-11 06:00",30.0973117723157,"Approved","OW377"
"2023-05-11 07:00",29.8223065976714,"Approved","OW377"
"2023-05-11 08:00",29.5813014230272,"Approved","OW377"
"2023-05-11 09:00",29.4182962483829,"Approved","OW377"
"2023-05-11 10:00",29.5642910737387,"Approved","OW377"
"2023-05-11 11:00",29.6292858990944,"Approved","OW377"
"2023-05-11 12:00",29.3712807244502,"Approved","OW377"
"2023-05-11 13:00",29.397275549806,"Approved","OW377"
"2023-05-11 14:00",29.8632703751617,"Approved","OW377"
"2023-05-11 15:00",30.1162652005175,"Approved","OW377"
"2023-05-11 16:00",30.2622600258732,"Approved","OW377"
"2023-05-11 17:00",29.747254851229,"Approved","OW377"
"2023-05-11 18:00",29.8302496765847,"Approved","OW377"
"2023-05-11 19:00",30.1772445019405,"Approved","OW377"
"2023-05-11 20:00",30.3812393272962,"Approved","OW377"
"2023-05-11 21:00",30.538234152652,"Approved","OW377"
"2023-05-11 22:00",30.2102289780078,"Approved","OW377"
"2023-05-11 23:00",30.1132238033635,"Approved","OW377"
"2023-05-12 00:00",30.3012186287193,"Approved","OW377"
"2023-05-12 01:00",29.888213454075,"Approved","OW377"
"2023-05-12 02:00",30.3612082794308,"Approved","OW377"
"2023-05-12 03:00",30.5752031047865,"Approved","OW377"
"2023-05-12 04:00",30.3281979301423,"Approved","OW377"
"2023-05-12 05:00",30.1431927554981,"Approved","OW377"
"2023-05-12 06:00",29.8611875808538,"Approved","OW377"
"2023-05-12 07:00",29.8521824062096,"Approved","OW377"
"2023-05-12 08:00",29.9011772315653,"Approved","OW377"
"2023-05-12 09:00",29.6451720569211,"Approved","OW377"
"2023-05-12 10:00",29.4861668822768,"Approved","OW377"
"2023-05-12 11:00",29.3581617076326,"Approved","OW377"
"2023-05-12 12:00",29.2691565329884,"Approved","OW377"
"2023-05-12 13:00",29.8521513583441,"Approved","OW377"
"2023-05-12 14:00",29.4421461836999,"Approved","OW377"
"2023-05-12 15:00",29.7281410090556,"Approved","OW377"
"2023-05-12 16:00",30.0571358344114,"Approved","OW377"
"2023-05-12 17:00",30.2731306597671,"Approved","OW377"
"2023-05-12 18:00",30.4441254851229,"Approved","OW377"
"2023-05-12 19:00",30.5901203104787,"Approved","OW377"
"2023-05-12 20:00",30.0931151358344,"Approved","OW377"
"2023-05-12 21:00",29.8791099611902,"Approved","OW377"
"2023-05-12 22:00",30.3501047865459,"Approved","OW377"
"2023-05-12 23:00",30.5670996119017,"Approved","OW377"
"2023-05-13 00:00",30.5170944372574,"Approved","OW377"
"2023-05-13 01:00",30.0840892626132,"Approved","OW377"
"2023-05-13 02:00",30.305084087969,"Approved","OW377"
"2023-05-13 03:00",30.5880789133247,"Approved","OW377"
"2023-05-13 04:00",30.3140737386805,"Approved","OW377"
"2023-05-13 05:00",30.0020685640362,"Approved","OW377"
"2023-05-13 06:00",30.077063389392,"Approved","OW377"
"2023-05-13 07:00",30.1630582147477,"Approved","OW377"
"2023-05-13 08:00",29.8490530401035,"Approved","OW377"
"2023-05-13 09:00",29.6690478654593,"Approved","OW377"
"2023-05-13 10:00",29.529042690815,"Approved","OW377"
"2023-05-13 11:00",30.0790375161708,"Approved","OW377"
"2023-05-13 12:00",29.7130323415265,"Approved","OW377"
"2023-05-13 13:00",29.5210271668823,"Approved","OW377"
"2023-05-13 14:00",29.387021992238,"Approved","OW377"
"2023-05-13 15:00",29.9060168175938,"Approved","OW377"
"2023-05-13 16:00",30.1990116429495,"Approved","OW377"
"2023-05-13 17:00",29.8580064683053,"Approved","OW377"
"2023-05-13 18:00",29.6430012936611,"Approved","OW377"
"2023-05-13 19:00",29.8979961190168,"Approved","OW377"
"2023-05-13 20:00",29.9239909443726,"Approved","OW377"
"2023-05-13 21:00",30.2609857697283,"Approved","OW377"
"2023-05-13 22:00",30.4669805950841,"Approved","OW377"
"2023-05-13 23:00",30.6279754204398,"Approved","OW377"
"2023-05-14 00:00",30.7649702457956,"Approved","OW377"
"2023-05-14 01:00",30.8849650711514,"Approved","OW377"
"2023-05-14 02:00",30.8459598965071,"Approved","OW377"
"2023-05-14 03:00",30.3489547218629,"Approved","OW377"
"2023-05-14 04:00",30.4209495472186,"Approved","OW377"
"2023-05-14 05:00",30.0549443725744,"Approved","OW377"
"2023-05-14 06:00",29.8629391979301,"Approved","OW377"
"2023-05-14 07:00",29.7139340232859,"Approved","OW377"
"2023-05-14 08:00",29.5859288486417,"Approved","OW377"
"2023-05-14 09:00",29.4729236739974,"Approved","OW377"
"2023-05-14 10:00",29.3679184993532,"Approved","OW377"
"2023-05-14 11:00",29.2729133247089,"Approved","OW377"
"2023-05-14 12:00",29.1829081500647,"Approved","OW377"
"2023-05-14 13:00",29.0989029754204,"Approved","OW377"
"2023-05-14 14:00",29.0208978007762,"Approved","OW377"
"2023-05-14 15:00",28.945892626132,"Approved","OW377"
"2023-05-14 16:00",28.8728874514877,"Approved","OW377"
"2023-05-14 17:00",28.8018822768435,"Approved","OW377"
"2023-05-14 18:00",28.7318771021992,"Approved","OW377"
"2023-05-14 19:00",29.021871927555,"Approved","OW377"
"2023-05-14 20:00",29.4438667529107,"Approved","OW377"
"2023-05-14 21:00",29.7108615782665,"Approved","OW377"
"2023-05-14 22:00",29.2418564036223,"Approved","OW377"
"2023-05-14 23:00",29.037851228978,"Approved","OW377"
"2023-05-15 00:00",28.8978460543338,"Approved","OW377"
"2023-05-15 01:00",29.4648408796895,"Approved","OW377"
"2023-05-15 02:00",29.6388357050453,"Approved","OW377"
"2023-05-15 03:00",29.221830530401,"Approved","OW377"
"2023-05-15 04:00",29.0338253557568,"Approved","OW377"
"2023-05-15 05:00",28.8988201811125,"Approved","OW377"
"2023-05-15 06:00",28.7898150064683,"Approved","OW377"
"2023-05-15 07:00",28.6938098318241,"Approved","OW377"
"2023-05-15 08:00",28.6078046571798,"Approved","OW377"
"2023-05-15 09:00",28.5287994825356,"Approved","OW377"
"2023-05-15 10:00",28.4547943078913,"Approved","OW377"
"2023-05-15 11:00",28.3847891332471,"Approved","OW377"
"2023-05-15 12:00",28.3177839586028,"Approved","OW377"
"2023-05-15 13:00",28.2547787839586,"Approved","OW377"
"2023-05-15 14:00",28.3987736093144,"Approved","OW377"
"2023-05-15 15:00",28.9177684346701,"Approved","OW377"
"2023-05-15 16:00",29.2157632600259,"Approved","OW377"
"2023-05-15 17:00",29.4467580853816,"Approved","OW377"
"2023-05-15 18:00",29.6367529107374,"Approved","OW377"
"2023-05-15 19:00",29.8017477360931,"Approved","OW377"
"2023-05-15 20:00",29.9457425614489,"Approved","OW377"
"2023-05-15 21:00",30.0787373868047,"Approved","OW377"
"2023-05-15 22:00",29.7267322121604,"Approved","OW377"
"2023-05-15 23:00",29.9607270375162,"Approved","OW377"
"2023-05-16 00:00",30.1667218628719,"Approved","OW377"
"2023-05-16 01:00",30.3137166882277,"Approved","OW377"
"2023-05-16 02:00",30.4407115135834,"Approved","OW377"
"2023-05-16 03:00",30.5547063389392,"Approved","OW377"
"2023-05-16 04:00",30.661701164295,"Approved","OW377"
"2023-05-16 05:00",30.7606959896507,"Approved","OW377"
"2023-05-16 06:00",30.8546908150065,"Approved","OW377"
"2023-05-16 07:00",30.9406856403622,"Approved","OW377"
"2023-05-16 08:00",31.021680465718,"Approved","OW377"
"2023-05-16 09:00",31.0956752910737,"Approved","OW377"
"2023-05-16 10:00",31.1666701164295,"Approved","OW377"
"2023-05-16 11:00",31.2356649417853,"Approved","OW377"
"2023-05-16 12:00",31.303659767141,"Approved","OW377"
"2023-05-16 13:00",31.3706545924968,"Approved","OW377"
"2023-05-16 14:00",31.4386494178525,"Approved","OW377"
"2023-05-16 15:00",31.5046442432083,"Approved","OW377"
"2023-05-16 16:00",31.567639068564,"Approved","OW377"
"2023-05-16 17:00",31.6286338939198,"Approved","OW377"
"2023-05-16 18:00",31.6866287192756,"Approved","OW377"
"2023-05-16 19:00",31.4346235446313,"Approved","OW377"
"2023-05-16 20:00",31.0516183699871,"Approved","OW377"
"2023-05-16 21:00",31.3566131953428,"Approved","OW377"
"2023-05-16 22:00",30.8956080206986,"Approved","OW377"
"2023-05-16 23:00",30.6286028460543,"Approved","OW377"
"2023-05-17 00:00",30.4325976714101,"Approved","OW377"
"2023-05-17 01:00",30.2725924967658,"Approved","OW377"
"2023-05-17 02:00",30.1335873221216,"Approved","OW377"
"2023-05-17 03:00",30.0115821474774,"Approved","OW377"
"2023-05-17 04:00",29.9005769728331,"Approved","OW377"
"2023-05-17 05:00",29.7985717981889,"Approved","OW377"
"2023-05-17 06:00",29.7035666235446,"Approved","OW377"
"2023-05-17 07:00",29.6135614489004,"Approved","OW377"
"2023-05-17 08:00",29.5265562742561,"Approved","OW377"
"2023-05-17 09:00",29.4425510996119,"Approved","OW377"
"2023-05-17 10:00",29.3615459249677,"Approved","OW377"
"2023-05-17 11:00",29.2825407503234,"Approved","OW377"
"2023-05-17 12:00",29.2075355756792,"Approved","OW377"
"2023-05-17 13:00",29.1355304010349,"Approved","OW377"
"2023-05-17 14:00",29.0655252263907,"Approved","OW377"
"2023-05-17 15:00",28.9975200517464,"Approved","OW377"
"2023-05-17 16:00",28.9325148771022,"Approved","OW377"
"2023-05-17 17:00",29.496509702458,"Approved","OW377"
"2023-05-17 18:00",29.8245045278137,"Approved","OW377"
"2023-05-17 19:00",29.3734993531695,"Approved","OW377"
"2023-05-17 20:00",29.1854941785252,"Approved","OW377"
"2023-05-17 21:00",29.053489003881,"Approved","OW377"
"2023-05-17 22:00",28.9464838292367,"Approved","OW377"
"2023-05-17 23:00",28.8514786545925,"Approved","OW377"
"2023-05-18 00:00",28.7674734799483,"Approved","OW377"
"2023-05-18 01:00",28.739468305304,"Approved","OW377"
"2023-05-18 02:00",29.3334631306598,"Approved","OW377"
"2023-05-18 03:00",29.6354579560155,"Approved","OW377"
"2023-05-18 04:00",29.3484527813713,"Approved","OW377"
"2023-05-18 05:00",29.362447606727,"Approved","OW377"
"2023-05-18 06:00",29.6274424320828,"Approved","OW377"
"2023-05-18 07:00",29.5304372574385,"Approved","OW377"
"2023-05-18 08:00",29.3494320827943,"Approved","OW377"
"2023-05-18 09:00",29.1454269081501,"Approved","OW377"
"2023-05-18 10:00",29.0054217335058,"Approved","OW377"
"2023-05-18 11:00",29.1934165588616,"Approved","OW377"
"2023-05-18 12:00",28.9244113842173,"Approved","OW377"
"2023-05-18 13:00",28.8024062095731,"Approved","OW377"
"2023-05-18 14:00",28.7074010349288,"Approved","OW377"
"2023-05-18 15:00",28.6443958602846,"Approved","OW377"
"2023-05-18 16:00",29.2593906856404,"Approved","OW377"
"2023-05-18 17:00",29.2433855109961,"Approved","OW377"
"2023-05-18 18:00",29.6383803363519,"Approved","OW377"
"2023-05-18 19:00",29.8113751617076,"Approved","OW377"
"2023-05-18 20:00",29.7583699870634,"Approved","OW377"
"2023-05-18 21:00",29.3663648124191,"Approved","OW377"
"2023-05-18 22:00",29.8303596377749,"Approved","OW377"
"2023-05-18 23:00",30.0573544631307,"Approved","OW377"
"2023-05-19 00:00",29.5423492884864,"Approved","OW377"
"2023-05-19 01:00",29.8253441138422,"Approved","OW377"
"2023-05-19 02:00",30.0913389391979,"Approved","OW377"
"2023-05-19 03:00",30.2693337645537,"Approved","OW377"
"2023-05-19 04:00",30.1753285899094,"Approved","OW377"
"2023-05-19 05:00",29.7583234152652,"Approved","OW377"
"2023-05-19 06:00",29.537318240621,"Approved","OW377"
"2023-05-19 07:00",29.3743130659767,"Approved","OW377"
"2023-05-19 08:00",29.2413078913325,"Approved","OW377"
"2023-05-19 09:00",29.6033027166882,"Approved","OW377"
"2023-05-19 10:00",29.943297542044,"Approved","OW377"
"2023-05-19 11:00",29.5842923673997,"Approved","OW377"
"2023-05-19 12:00",29.3552871927555,"Approved","OW377"
"2023-05-19 13:00",29.2012820181113,"Approved","OW377"
"2023-05-19 14:00",29.081276843467,"Approved","OW377"
"2023-05-19 15:00",29.5442716688228,"Approved","OW377"
"2023-05-19 16:00",29.8682664941785,"Approved","OW377"
"2023-05-19 17:00",30.0952613195343,"Approved","OW377"
"2023-05-19 18:00",30.27525614489,"Approved","OW377"
"2023-05-19 19:00",30.4292509702458,"Approved","OW377"
"2023-05-19 20:00",30.1702457956016,"Approved","OW377"
"2023-05-19 21:00",29.8162406209573,"Approved","OW377"
"2023-05-19 22:00",29.6022354463131,"Approved","OW377"
"2023-05-19 23:00",29.9992302716688,"Approved","OW377"
"2023-05-20 00:00",30.2772250970246,"Approved","OW377"
"2023-05-20 01:00",30.4642199223803,"Approved","OW377"
"2023-05-20 02:00",30.0612147477361,"Approved","OW377"
"2023-05-20 03:00",29.7782095730918,"Approved","OW377"
"2023-05-20 04:00",29.5902043984476,"Approved","OW377"
"2023-05-20 05:00",29.8281992238034,"Approved","OW377"
"2023-05-20 06:00",30.1851940491591,"Approved","OW377"
"2023-05-20 07:00",30.1191888745149,"Approved","OW377"
"2023-05-20 08:00",29.7651836998706,"Approved","OW377"
"2023-05-20 09:00",29.5701785252264,"Approved","OW377"
"2023-05-20 10:00",29.4221733505821,"Approved","OW377"
"2023-05-20 11:00",29.3001681759379,"Approved","OW377"
"2023-05-20 12:00",29.1911630012937,"Approved","OW377"
"2023-05-20 13:00",29.0951578266494,"Approved","OW377"
"2023-05-20 14:00",29.4261526520052,"Approved","OW377"
"2023-05-20 15:00",29.8091474773609,"Approved","OW377"
"2023-05-20 16:00",29.6231423027167,"Approved","OW377"
"2023-05-20 17:00",29.3561371280724,"Approved","OW377"
"2023-05-20 18:00",29.1951319534282,"Approved","OW377"
"2023-05-20 19:00",29.070126778784,"Approved","OW377"
"2023-05-20 20:00",28.9651216041397,"Approved","OW377"
"2023-05-20 21:00",28.8731164294955,"Approved","OW377"
"2023-05-20 22:00",28.7871112548512,"Approved","OW377"
"2023-05-20 23:00",28.707106080207,"Approved","OW377"
"2023-05-21 00:00",28.6301009055627,"Approved","OW377"
"2023-05-21 01:00",29.0350957309185,"Approved","OW377"
"2023-05-21 02:00",29.4090905562743,"Approved","OW377"
"2023-05-21 03:00",29.66108538163,"Approved","OW377"
"2023-05-21 04:00",29.2790802069858,"Approved","OW377"
"2023-05-21 05:00",29.0460750323415,"Approved","OW377"
"2023-05-21 06:00",28.8950698576973,"Approved","OW377"
"2023-05-21 07:00",28.778064683053,"Approved","OW377"
"2023-05-21 08:00",29.1510595084088,"Approved","OW377"
"2023-05-21 09:00",29.5080543337646,"Approved","OW377"
"2023-05-21 10:00",29.0700491591203,"Approved","OW377"
"2023-05-21 11:00",28.8850439844761,"Approved","OW377"
"2023-05-21 12:00",28.7550388098318,"Approved","OW377"
"2023-05-21 13:00",28.6500336351876,"Approved","OW377"
"2023-05-21 14:00",28.5600284605433,"Approved","OW377"
"2023-05-21 15:00",28.4800232858991,"Approved","OW377"
"2023-05-21 16:00",28.8510181112549,"Approved","OW377"
"2023-05-21 17:00",29.2390129366106,"Approved","OW377"
"2023-05-21 18:00",29.3520077619664,"Approved","OW377"
"2023-05-21 19:00",29.1470025873221,"Approved","OW377"
"2023-05-21 20:00",29.5419974126779,"Approved","OW377"
"2023-05-21 21:00",29.7649922380336,"Approved","OW377"
"2023-05-21 22:00",29.9409870633894,"Approved","OW377"
"2023-05-21 23:00",30.0939818887451,"Approved","OW377"
"2023-05-22 00:00",30.2299767141009,"Approved","OW377"
"2023-05-22 01:00",30.3519715394567,"Approved","OW377"
"2023-05-22 02:00",30.4639663648124,"Approved","OW377"
"2023-05-22 03:00",30.5709611901682,"Approved","OW377"
"2023-05-22 04:00",30.6729560155239,"Approved","OW377"
"2023-05-22 05:00",30.6279508408797,"Approved","OW377"
"2023-05-22 06:00",30.1219456662354,"Approved","OW377"
"2023-05-22 07:00",29.8599404915912,"Approved","OW377"
"2023-05-22 08:00",29.670935316947,"Approved","OW377"
"2023-05-22 09:00",29.5169301423027,"Approved","OW377"
"2023-05-22 10:00",29.3849249676585,"Approved","OW377"
"2023-05-22 11:00",29.2689197930142,"Approved","OW377"
"2023-05-22 12:00",29.16291461837,"Approved","OW377"
"2023-05-22 13:00",29.0639094437257,"Approved","OW377"
"2023-05-22 14:00",28.9729042690815,"Approved","OW377"
"2023-05-22 15:00",28.8858990944373,"Approved","OW377"
"2023-05-22 16:00",28.804893919793,"Approved","OW377"
"2023-05-22 17:00",28.7268887451488,"Approved","OW377"
"2023-05-22 18:00",28.6548835705045,"Approved","OW377"
"2023-05-22 19:00",28.5868783958603,"Approved","OW377"
"2023-05-22 20:00",28.520873221216,"Approved","OW377"
"2023-05-22 21:00",28.4578680465718,"Approved","OW377"
"2023-05-22 22:00",28.6608628719276,"Approved","OW377"
"2023-05-22 23:00",29.0888576972833,"Approved","OW377"
"2023-05-23 00:00",28.7128525226391,"Approved","OW377"
"2023-05-23 01:00",28.8158473479948,"Approved","OW377"
"2023-05-23 02:00",28.9438421733506,"Approved","OW377"
"2023-05-23 03:00",28.6878369987063,"Approved","OW377"
"2023-05-23 04:00",29.1168318240621,"Approved","OW377"
"2023-05-23 05:00",28.7368266494179,"Approved","OW377"
"2023-05-23 06:00",28.7588214747736,"Approved","OW377"
"2023-05-23 07:00",29.2348163001294,"Approved","OW377"
"2023-05-23 08:00",28.8998111254851,"Approved","OW377"
"2023-05-23 09:00",28.7028059508409,"Approved","OW377"
"2023-05-23 10:00",28.5718007761966,"Approved","OW377"
"2023-05-23 11:00",28.4667956015524,"Approved","OW377"
"2023-05-23 12:00",28.3777904269081,"Approved","OW377"
"2023-05-23 13:00",28.2987852522639,"Approved","OW377"
"2023-05-23 14:00",28.2267800776197,"Approved","OW377"
"2023-05-23 15:00",28.1597749029754,"Approved","OW377"
"2023-05-23 16:00",28.0957697283312,"Approved","OW377"
"2023-05-23 17:00",28.1507645536869,"Approved","OW377"
"2023-05-23 18:00",28.6107593790427,"Approved","OW377"
"2023-05-23 19:00",28.5807542043984,"Approved","OW377"